Location: Kumla
(59.1265°N, 15.1401°E)
Time: 08:46:47
(UTC+01:00)

Transit 2A - Pass Details

Date: 03 December 2023
Orbit: 600 x 953 km, 66.7° (Epoch: 22 February)

Event Time Altitude Azimuth Distance (km) Brightness Sun altitude
Rises 17:09:35 0° 224° (SW) 3,127 10.4 -14.0°
Reaches altitude 10° 17:12:01 10° 223° (SW) 2,156 9.4 -14.3°
Maximum altitude 17:16:52 82° 137° (SE) 667 5.6 -14.9°
Enters shadow 17:19:35 24° 52° (NE) 1,319 6.7 -15.2°
Drops below altitude 10° 17:21:21 10° 50° (NE) 2,003 - -15.4°
Sets 17:23:33 0° 50° (NE) 2,888 - -15.7°
